Jackson, KY

2:48 AM EDT on June 28, 2017 (GMT -0400)
Carroll

Weather History for KJKL - February, 2015

Change the Weather History Date:

Monday, February 23, 2015

  Actual Average Record
Temperature  
Mean Temperature 21 °F 41 °F  
Max Temperature 30 °F 50 °F 79 °F (1996)
Min Temperature 12 °F 32 °F 12 °F (2015)
Degree Days  
Heating Degree Days 44 24  
Month to date heating degree days 860 617  
Since 1 July heating degree days 3574 3183  
Cooling Degree Days 0 0  
Month to date cooling degree days 0 0  
Year to date cooling degree days 0 0  
Moisture  
Dew Point 11 °F    
Average Humidity 61    
Maximum Humidity 85    
Minimum Humidity 36    
Precipitation  
Precipitation T in 0.14 in 0.94 in (1994)
Month to date precipitation 4.04 3.07  
Year to date precipitation 6.16 6.68  
Snow  
Snow T in 0.20 in 1.60 in (2003)
Month to date snowfall 20.9 6.0  
Since 1 July snowfall 24.8 18.6  
Snow Depth 5.00 in    
Sea Level Pressure  
Sea Level Pressure 30.44 in    
Wind  
Wind Speed 5 mph (NNE)    
Max Wind Speed 12 mph    
Max Gust Speed 17 mph    
Visibility 9 miles    
Events      
T = Trace of Precipitation, MM = Missing Value Source: NWS Daily Summary

Daily Weather History Graph

Daily Weather History Graph

Search for Another Location

Airport or City:

Trip Planner

Search our weather history database for the weather conditions in past years. The results will help you decide how hot, cold, wet, or windy it might be!

Date:

Astronomy

Feb. 23, 2015 Rise Set
Actual Time 7:13 AM EST 6:20 PM EST
Civil Twilight 6:46 AM EST 6:47 PM EST
Nautical Twilight 6:16 AM EST 7:17 PM EST
Astronomical Twilight 5:45 AM EST 7:48 PM EST
Moon 10:10 AM EST (2/23) No Moon Set
Length of Visible Light 12h 00m
Length of Day
11h 07m
Waxing Crescent, 29% of the Moon is Illuminated
Feb 23
Waxing Crescent
Feb 25
First Quarter
Mar 5
Full
Mar 13
Last Quarter
Mar 20
New

Hourly Weather History & Observations

Time (EST) Temp. Windchill Dew Point Humidity Pressure Visibility Wind Dir Wind Speed Gust Speed Precip Events Conditions
12:53 AM 30.0 °F 24.1 °F 24.1 °F 79% 30.39 in 8.0 mi Variable 5.8 mph - N/A   Overcast
1:18 AM 30.0 °F 24.1 °F 24.1 °F 79% 30.36 in 7.0 mi North 5.8 mph - N/A   Overcast
1:53 AM 28.9 °F 23.9 °F 24.1 °F 82% 30.40 in 7.0 mi Variable 4.6 mph - N/A   Overcast
2:53 AM 28.9 °F 22.8 °F 21.9 °F 75% 30.42 in 7.0 mi Variable 5.8 mph - N/A   Overcast
3:02 AM 28.9 °F 22.8 °F 21.9 °F 75% 30.38 in 7.0 mi Variable 5.8 mph - N/A   Overcast
3:17 AM 28.0 °F 20.8 °F 21.9 °F 78% 30.38 in 6.0 mi Variable 6.9 mph - N/A   Haze
3:53 AM 27.0 °F 21.6 °F 21.0 °F 78% 30.41 in 5.0 mi North 4.6 mph - N/A   Haze
4:53 AM 26.1 °F 19.4 °F 19.0 °F 75% 30.42 in 8.0 mi Variable 5.8 mph - N/A   Overcast
5:02 AM 25.0 °F 17.1 °F 18.0 °F 75% 30.38 in 8.0 mi Variable 6.9 mph - N/A   Overcast
5:53 AM 24.1 °F 15.2 °F 16.0 °F 71% 30.45 in 10.0 mi NNE 8.1 mph - N/A   Overcast
6:53 AM 24.1 °F 16.0 °F 16.0 °F 71% 30.46 in 9.0 mi NNE 6.9 mph - N/A   Overcast
7:53 AM 23.0 °F 15.8 °F 16.0 °F 74% 30.47 in 9.0 mi Variable 5.8 mph - N/A   Overcast
8:53 AM 19.9 °F 12.1 °F 12.9 °F 74% 30.50 in 8.0 mi North 5.8 mph - N/A   Overcast
9:53 AM 19.9 °F 11.1 °F 12.0 °F 71% 30.51 in 6.0 mi Variable 6.9 mph - N/A   Haze
10:53 AM 21.9 °F 14.5 °F 12.0 °F 66% 30.51 in 10.0 mi NE 5.8 mph - N/A   Overcast
11:23 AM 23.0 °F 14.7 °F 10.9 °F 60% 30.47 in 10.0 mi NNE 6.9 mph - N/A   Scattered Clouds
11:53 AM 24.1 °F 18.2 °F 10.0 °F 55% 30.51 in 10.0 mi Variable 4.6 mph - N/A   Partly Cloudy
12:53 PM 25.0 °F 17.1 °F 7.0 °F 46% 30.49 in 10.0 mi North 6.9 mph - N/A   Clear
1:53 PM 25.0 °F - 5.0 °F 43% 30.46 in 10.0 mi North - - N/A   Clear
2:53 PM 26.1 °F 20.5 °F 3.0 °F 37% 30.45 in 10.0 mi Variable 4.6 mph - N/A   Clear
3:53 PM 25.0 °F 18.1 °F 1.0 °F 36% 30.49 in 10.0 mi Variable 5.8 mph - N/A   Clear
4:53 PM 25.0 °F 20.7 °F 3.0 °F 39% 30.46 in 10.0 mi Variable 3.5 mph - N/A   Clear
5:53 PM 21.9 °F 17.2 °F 3.9 °F 46% 30.45 in 10.0 mi NNE 3.5 mph - N/A   Clear
6:53 PM 18.0 °F 9.8 °F 3.0 °F 52% 30.45 in 10.0 mi NNE 5.8 mph - N/A   Clear
7:53 PM 16.0 °F 10.4 °F 1.9 °F 54% 30.44 in 10.0 mi NNE 3.5 mph - N/A   Clear
8:53 PM 15.1 °F 9.4 °F 1.9 °F 56% 30.43 in 10.0 mi NNE 3.5 mph - N/A   Clear
9:53 PM 12.9 °F - 1.9 °F 62% 30.40 in 10.0 mi Calm Calm - N/A   Clear
10:53 PM 12.0 °F 4.1 °F 1.0 °F 61% 30.39 in 10.0 mi NE 4.6 mph - N/A   Clear
11:53 PM 12.0 °F - -0.9 °F 56% 30.36 in 10.0 mi Calm Calm - N/A   Clear